Regional Weather Roundup
Issued by NWS

Home | Current Version | Previous Version | Text Only | Print | Product List | Glossary On
Versions: 1 2 3 4 5 6 7 8 9 10 11 12 13 14 15 16 17 18 19 20 21 22 23 24 25 26 27 28 29 30 31 32 33 34 35 36 37 38 39 40 41 42 43 44 45 46 47 48 49 50
295
ASUS43 KDTX 061201
RWRMI
MICHIGAN HOURLY REGIONAL WEATHER ROUNDUP
NATIONAL WEATHER SERVICE DETROIT/PONTIAC MI
700 AM EST TUE DEC 06 2016

NOTE: "FAIR" INDICATES FEW OR NO CLOUDS BELOW 12,000 FEET WITH NO
SIGNIFICANT WEATHER AND/OR OBSTRUCTION TO VISIBILITY.

MIZ047>049-052>055-059>063-066>070-074>076-081>083-061300-
SOUTHEAST LOWER MICHIGAN

CITY           SKY/WX    TMP DP  RH WIND       PRES   REMARKS
ADRIAN         PTCLDY    32  32 100 NE8       29.85F WCI  25
6HR MIN TEMP:  28; 6HR MAX TEMP:  32;

ALMA           PTCLDY    29  27  94 E7        29.91F FOG     WCI  22
ANN ARBOR      CLOUDY    34  32  92 NE7       29.86F WCI  28
BAD AXE        CLEAR     30  29  94 E3        29.95F
CARO           CLEAR     30  28  94 E6        29.92F WCI  24
DETROIT CITY   PTCLDY    37  34  89 E8        29.92F WCI  31
6HR MIN TEMP:  27; 6HR MAX TEMP:  37;

DETROIT        CLOUDY    36  32  85 E8        29.89F FOG     WCI  30
6HR MIN TEMP:  30; 6HR MAX TEMP:  36;

FLINT          CLOUDY    28  26  92 E8        29.91F WCI  20
6HR MIN TEMP:  24; 6HR MAX TEMP:  29;

GROSSE ILE     PTCLDY    35  32  90 NE9       29.88F WCI  27
6HR MIN TEMP:  32; 6HR MAX TEMP:  35;

HILLSDALE      CLOUDY    32  30  93 E13       29.81F FOG     WCI  22
HOWELL         PTCLDY    34  31  90 E9        29.87F WCI  27
6HR MIN TEMP:  26; 6HR MAX TEMP:  35;


CITY           SKY/WX    TMP DP  RH WIND       PRES   REMARKS
JACKSON        FLURRIES  34  30  85 E9        29.84F WCI  27
6HR MIN TEMP:  26; 6HR MAX TEMP:  34;

LAMBERTVILLE   CLOUDY    39  32  77 E9        29.84F WCI  32
6HR MIN TEMP:  26; 6HR MAX TEMP:  39;

LANSING        CLOUDY    30  27  88 E8        29.87F WCI  22
6HR MIN TEMP:  23; 6HR MAX TEMP:  32;

LAPEER         NOT AVBL
MASON          PTCLDY    33  31  94 E7        29.86F WCI  27
MONROE         PTCLDY    39  34  81 E12       29.85F WCI  32
6HR MIN TEMP:  25; 6HR MAX TEMP:  39;

MT. CLEMENS    MOCLDY    36  33  89 NE9       29.91F WCI  29
6HR MIN TEMP:  26; 6HR MAX TEMP:  37;

PONTIAC        CLOUDY    34  30  85 E9        29.90F WCI  27
6HR MIN TEMP:  25; 6HR MAX TEMP:  34;

PORT HOPE        N/A     38  32  79 SE10      29.96F WCI  31
6HR MIN TEMP:  29; 6HR MAX TEMP:  38;

PORT HURON     CLOUDY    30  30 100 E3        29.96S
TRI CITIES     CLEAR     29  27  92 E8        29.93F WCI  21
6HR MIN TEMP:  28; 6HR MAX TEMP:  32;

MIDLAND        FAIR      29  27  93 NE5       29.93F FOG     WCI  24
6HR MIN TEMP:  27; 6HR MAX TEMP:  32;

TROY           CLOUDY    35  31  87 NE8       29.92F WCI  28
SAGINAW HB     CLOUDY    30  27  86 NE5       29.92F FOG     WCI  25
$$
MIZ043>046-050>051-056>058-064>065-071>073-077>080-061300-
SOUTHWEST LOWER MICHIGAN

CITY           SKY/WX    TMP DP  RH WIND       PRES   REMARKS
BATTLE CREEK   CLOUDY    32  30  92 E7        29.83F WCI  26
6HR MIN TEMP:  27; 6HR MAX TEMP:  32;

BENTON HARBOR  MOCLDY    31  27  85 E6        29.82F FOG     WCI  25
6HR MIN TEMP:  30; 6HR MAX TEMP:  32;

BIG RAPIDS     CLOUDY    32  28  86 SE7       29.89S WCI  25
6HR MIN TEMP:  30; 6HR MAX TEMP:  32;

COLDWATER      PTCLDY    34  31  86 E13G18    29.81F WCI  25
6HR MIN TEMP:  28; 6HR MAX TEMP:  34;

FREMONT        CLOUDY    31  27  88 E10G17    29.87F WCI  22
HOLLAND        CLEAR     29  26  89 E7        29.85F WCI  22
6HR MIN TEMP:  28; 6HR MAX TEMP:  31;

GRAND RAPIDS   CLOUDY    31  28  89 E9        29.86F FOG     WCI  23
6HR MIN TEMP:  27; 6HR MAX TEMP:  32;

IONIA          FAIR      29  28  96 NE7       29.85F FOG     WCI  21
6HR MIN TEMP:  28; 6HR MAX TEMP:  30;

KALAMAZOO      MOCLDY    31  27  85 NE5       29.83F FOG     WCI  26
6HR MIN TEMP:  28; 6HR MAX TEMP:  31;

LUDINGTON      CLOUDY    31  29  93 SE5       29.87F WCI  26
6HR MIN TEMP:  31; 6HR MAX TEMP:  34;

MARSHALL       CLOUDY    32  31  96 E7        29.82F WCI  26
6HR MIN TEMP:  25; 6HR MAX TEMP:  32;

MOUNT PLEASANT CLOUDY    28  28  96 NE3       29.92S FOG
6HR MIN TEMP:  26; 6HR MAX TEMP:  32;

MUSKEGON       PTCLDY    31  28  89 E10       29.87F WCI  22
6HR MIN TEMP:  29; 6HR MAX TEMP:  32;

SOUTH HAVEN    CLOUDY    31  30  94 E3        29.83F
$$
MIZ016>042-061300-
NORTHERN LOWER MICHIGAN

CITY           SKY/WX    TMP DP  RH WIND       PRES   REMARKS
ALPENA         PTCLDY    31  29  92 S5        29.96F WCI  26
6HR MIN TEMP:  25; 6HR MAX TEMP:  31;

BEAVER ISLAND  PTCLDY    38  35  87 SE9       29.89F WCI  32
6HR MIN TEMP:  38; 6HR MAX TEMP:  40;

BELLAIRE       CLOUDY    34  32  92 CALM      29.91F
6HR MIN TEMP:  29; 6HR MAX TEMP:  34;

CADILLAC       PTCLDY    29  27  91 SE6       29.88R WCI  23
CHARLEVOIX     CLOUDY    34  32  92 SE7       29.92S WCI  28
FRANKFORT      MOCLDY    35  31  88 SE7       29.87S WCI  29
GAYLORD        CLOUDY    30  28  92 SE10      29.90S FOG     WCI  21
6HR MIN TEMP:  29; 6HR MAX TEMP:  31;

GRAYLING       PTCLDY    29  28  96 E5        29.91F FOG     WCI  24
6HR MIN TEMP:  27; 6HR MAX TEMP:  32;

HARBOR SPRINGS CLOUDY    34  31  88 E6        29.91F WCI  29
HOUGHTON LAKE  PTCLDY    29  27  92 E5        29.92F WCI  24
6HR MIN TEMP:  28; 6HR MAX TEMP:  32;

MANISTEE       CLOUDY    31  29  92 SE6       29.87F WCI  25
OSCODA         CLOUDY    30  29  94 CALM      29.96F FOG
6HR MIN TEMP:  26; 6HR MAX TEMP:  31;

PELLSTON       CLOUDY    33  29  85 E3        29.93F
6HR MIN TEMP:  31; 6HR MAX TEMP:  34;

ROGERS CITY    CLOUDY    34  31  88 S5        29.96F WCI  30
TRAVERSE CITY  CLOUDY    35  30  82 CALM      29.89S
6HR MIN TEMP:  34; 6HR MAX TEMP:  36;

$$
MIZ007>008-015-061300-
EASTERN UPPER MICHIGAN

CITY           SKY/WX    TMP DP  RH WIND       PRES   REMARKS
KINROSS        LGT RAIN  34  33  96 SE12      29.93F WCI  25
6HR MIN TEMP:  32; 6HR MAX TEMP:  34; 6HR PCP: TRACE;

MACKINAC ISLAN CLOUDY    36  32  86 SE6       29.93F WCI  31
NEWBERRY       CLOUDY    35  34  96 SE9       29.87S FOG     WCI  27
6HR MIN TEMP:  27; 6HR MAX TEMP:  35;

S. S. MARIE    LGT RAIN  35  33  92 E3        29.94S
6HR MIN TEMP:  33; 6HR MAX TEMP:  35; 6HR PCP: TRACE;

MUNISING         N/A     38  36  92 S9        29.82S WCI  31
6HR MIN TEMP:  34; 6HR MAX TEMP:  38;

$$
MIZ004>006-011>014-085-061300-
CENTRAL UPPER MICHIGAN

CITY           SKY/WX    TMP DP  RH WIND       PRES   REMARKS
MANISTIQUE     CLOUDY    40  38  92 SE15G21   29.85F WCI  32
6HR MIN TEMP:  36; 6HR MAX TEMP:  41; 6HR PCP:  0.02;

ESCANABA       CLOUDY    41  36  82 S14       29.82F
6HR MIN TEMP:  38; 6HR MAX TEMP:  43;

MENOMINEE      CLOUDY    39  35  86 S12G18    29.83F WCI  32
6HR MIN TEMP:  37; 6HR MAX TEMP:  40;

SAWYER-GWINN   CLOUDY    34  34 100 S7        29.79F FOG     WCI  28
$$
MIZ001>003-009>011-084-061300-
WESTERN UPPER MICHIGAN

CITY           SKY/WX    TMP DP  RH WIND       PRES   REMARKS
IRON MOUNTAIN  CLOUDY    36  32  85 SE10      29.75F WCI  28
6HR MIN TEMP:  32; 6HR MAX TEMP:  36;

HOUGHTON       CLOUDY    36  30  79 SE8       29.69F WCI  30
6HR MIN TEMP:  35; 6HR MAX TEMP:  37;

COPPER HARBOR    N/A     40  36  86 SW12G25   29.74F WCI  33
6HR MIN TEMP:  36; 6HR MAX TEMP:  40; 6HR PCP:  0.01;

IRONWOOD       CLOUDY    34  29  82 S9        29.64F WCI  27
6HR MIN TEMP:  34; 6HR MAX TEMP:  37; 6HR PCP: TRACE;

$$

ABBREVIATIONS USED IN REMARKS
   TC - TEMPERATURE IN CELSIUS
  WCI - WIND CHILL INDEX
   HX - HEAT INDEX
  VSB - VISIBILITY





USA.gov is the U.S. government's official web portal to all federal, state and local government web resources and services.